Weather in Payevo

Russia / Republic of Mordovia     54°01′06″N   44°13′20″E
temp.,
°C
wind,
m/s
gust,
m/s
humid.,
%
clouds,
%
prec.,
mm/h
press.,
hPa
HPBL,
m
4 december, sat
sat400:00+4s81795100 0.0 1006610
03:00+4s101988100 0.0 1004747
06:00+4ssw101986100 0.6 10011025
09:000w41098100 2.8 1006647
12:00+1wsw61079100 0.1 1008812
15:000wsw6107815 0.1 1009477
18:00−2wsw5108685 0.0 1011519
21:00−3w598416 0.0 1012539
5 december, sun
sun500:00−3w598255 0.0 1013538
03:00−3w488437 0.0 1015441
06:00−3w35865 0.0 1015268
09:00−3wsw24875 0.0 1017270
12:00−2w2374100 0.0 1017419
15:00−1w2377100 0.0 1018363
18:00−2sw128298 0.0 101955
21:00−3s00845 0.0 102010
6 december, mon
mon600:00−3ssw11855 0.0 102110
03:00−3s118584 0.0 102210
06:00−3sse2285100 0.0 102216
09:00−3se2382100 0.0 102479
12:00−1se3574100 0.0 1024251
15:00−2se3676100 0.0 1025193
18:00−2ese3776100 0.0 1026203
21:00−2se4975100 0.0 1026303
7 december, tue
tue700:00−3se51179100 0.0 1026318
03:00−3se5128297 0.0 1026386
06:00−3se61379100 0.0 1025438
09:00−3se71672100 0.0 1024558
12:00−1se81674100 0.0 1022611
15:00−1sse91891100 0.4 1020561
18:000sse81795100 2.8 1019567
21:00+1s91894100 3.7 1018572
8 december, wed
wed800:00+2s81895100 1.7 1017516
03:00+2s81993100 1.7 1017563
06:00+3s82090100 0.0 1016590
09:00+3s71891100 0.0 1017538
12:00+3s71791100 0.0 1017523
15:00+3sse51392100 0.0 1017374
18:00+2sse51392100 0.0 1018318
21:00+2sse51391100 0.0 1018347